CW6043 Weather Reports


Display with metric or nautical units.
time (UTC)temp
F
wind
direction
speed
MPH
gust
MPH
rain 1hr
in
rain 24hr
in
rain mn
in
humidity
%
barometer
mb
20260902031017 61 0.0 0.0 0.00 0.00 0.00 74 1006.6
20260902030036 62 0.0 0.0 0.00 0.00 0.00 73 1006.6
20260902025017 63 0.0 0.0 0.00 0.00 0.00 72 1006.0
20260902024017 64 0.0 0.0 0.00 0.00 0.00 71 1006.2
20260902023017 65 0.0 0.0 0.00 0.00 0.00 70 1006.3
20260902022018 66 0.0 0.0 0.00 0.00 0.00 68 1006.2
20260902021017 67 0.0 0.0 0.00 0.00 0.00 68 1006.4
20260902020017 68 0.0 0.0 0.00 0.00 0.00 65 1006.5
20260902015017 69 0.0 1.0 0.00 0.00 0.00 65 1006.7
20260902014017 69 0.0 0.0 0.00 0.00 0.00 65 1006.8
20260902013017 69 0.0 0.0 0.00 0.00 0.00 66 1006.8
20260902012017 69 0.0 0.0 0.00 0.00 0.00 64 1006.8
20260902011037 69 0.0 0.0 0.00 0.00 0.00 65 1006.8
20260902010018 69 0.0 0.0 0.00 0.00 0.00 64 1006.8
20260902005017 69 0.0 0.0 0.00 0.00 0.00 63 1006.7
20260902004017 68 0.0 0.0 0.00 0.00 0.00 64 1006.7
20260902003017 68 0.0 0.0 0.00 0.00 0.00 68 1007.0
20260902002017 67 0.0 1.0 0.00 0.00 0.00 63 1007.2
20260902001018 68 0.0 0.0 0.00 0.00 0.00 62 1007.2
20260902000017 68 225 1.0 4.0 0.00 0.00 0.00 57 1007.4
20260901235017 71 0.0 1.0 0.00 0.00 0.00 56 1007.7
20260901234017 73 293 1.0 3.0 0.00 0.00 0.00 46 1007.4
20260901233017 75 315 1.0 4.0 0.00 0.00 0.00 43 1007.5
20260901232017 76 0.0 2.0 0.00 0.00 0.00 39 1007.5
20260901231017 77 0.0 1.0 0.00 0.00 0.00 38 1007.6
20260901230017 77 158 1.0 4.0 0.00 0.00 0.00 37 1007.7
20260901225017 78 113 1.0 5.0 0.00 0.00 0.00 36 1007.9
20260901224017 78 113 2.0 7.0 0.00 0.00 0.00 35 1008.0
20260901223017 79 90 2.0 7.0 0.00 0.00 0.00 33 1007.9
20260901222017 79 315 1.0 5.0 0.00 0.00 0.00 33 1007.6
20260901221017 79 293 1.0 3.0 0.00 0.00 0.00 34 1007.6
20260901220017 79 293 2.0 6.0 0.00 0.00 0.00 35 1007.5
20260901215017 80 0.0 1.0 0.00 0.00 0.00 35 1007.6
20260901214016 80 135 1.0 4.0 0.00 0.00 0.00 34 1007.7
20260901213017 81 113 1.0 8.0 0.00 0.00 0.00 33 1007.6
20260901212017 80 270 1.0 3.0 0.00 0.00 0.00 35 1007.8
20260901211057 80 270 1.0 3.0 0.00 0.00 0.00 34 1007.7
20260901210017 80 0.0 1.0 0.00 0.00 0.00 35 1007.5
20260901205016 80 270 1.0 2.0 0.00 0.00 0.00 35 1007.4
20260901204017 80 293 1.0 3.0 0.00 0.00 0.00 35 1007.4
20260901203017 80 225 1.0 3.0 0.00 0.00 0.00 35 1007.4
20260901202016 80 270 1.0 2.0 0.00 0.00 0.00 34 1007.5
20260901201017 80 225 1.0 2.0 0.00 0.00 0.00 35 1007.5
20260901200016 80 135 1.0 3.0 0.00 0.00 0.00 35 1007.6
20260901195016 81 0.0 2.0 0.00 0.00 0.00 35 1007.7
20260901194017 80 0.0 2.0 0.00 0.00 0.00 36 1007.6
20260901193016 79 270 1.0 3.0 0.00 0.00 0.00 36 1007.7
20260901192017 79 315 1.0 3.0 0.00 0.00 0.00 37 1007.9
20260901191016 78 135 1.0 2.0 0.00 0.00 0.00 40 1008.0
20260901190037 76 113 1.0 3.0 0.00 0.00 0.00 41 1008.1
20260901185017 76 90 1.0 3.0 0.00 0.00 0.00 40 1008.4
20260901184017 76 135 1.0 4.0 0.00 0.00 0.00 43 1008.4
20260901183036 76 113 1.0 2.0 0.00 0.00 0.00 43 1008.2
20260901182016 74 0.0 2.0 0.00 0.00 0.00 44 1008.5
20260901181016 73 158 1.0 4.0 0.00 0.00 0.00 45 1008.6
20260901180016 73 0.0 2.0 0.00 0.00 0.00 45 1008.6
20260901175056 72 113 1.0 4.0 0.00 0.00 0.00 46 1008.9
20260901174018 71 90 1.0 2.0 0.00 0.00 0.00 48 1008.8
20260901173016 70 0.0 3.0 0.00 0.00 0.00 52 1008.7
20260901172016 67 0.0 1.0 0.00 0.00 0.00 56 1009.0
20260901171016 65 0.0 2.0 0.00 0.00 0.00 57 1009.1
20260901170036 64 0.0 2.0 0.00 0.00 0.00 58 1009.2
20260901165017 62 0.0 2.0 0.00 0.00 0.00 62 1009.3
20260901164016 61 0.0 1.0 0.00 0.00 0.00 64 1009.2
20260901163018 59 0.0 1.0 0.00 0.00 0.00 65 1009.3
20260901162036 58 0.0 1.0 0.00 0.00 0.00 67 1009.3
20260901161016 56 0.0 1.0 0.00 0.00 0.00 69 1009.1
20260901160016 55 225 1.0 3.0 0.00 0.00 0.00 70 1009.1
20260901155017 52 0.0 1.0 0.00 0.00 0.00 74 1009.9
20260901154018 51 0.0 1.0 0.00 0.00 0.00 75 1009.9
20260901153017 50 0.0 1.0 0.00 0.00 0.00 78 1009.2
20260901152016 49 0.0 0.0 0.00 0.00 0.00 79 1009.8
20260901151017 47 0.0 0.0 0.00 0.00 0.00 81 1010.0
20260901150016 46 0.0 0.0 0.00 0.00 0.00 83 1010.0
20260901145016 44 0.0 1.0 0.00 0.00 0.00 85 1010.4
20260901144016 42 0.0 0.0 0.00 0.00 0.00 86 1010.0
20260901143016 41 0.0 0.0 0.00 0.00 0.00 87 1010.2
20260901142016 40 0.0 0.0 0.00 0.00 0.00 88 1010.9
20260901141016 38 0.0 0.0 0.00 0.00 0.00 88 1010.6
20260901140016 38 0.0 0.0 0.00 0.00 0.00 88 1010.6
20260901135016 37 0.0 0.0 0.00 0.00 0.00 88 1010.7
20260901134016 37 0.0 0.0 0.00 0.00 0.00 87 1010.7
20260901133017 37 0.0 0.0 0.00 0.00 0.00 88 1010.7
20260901132016 37 0.0 0.0 0.00 0.00 0.00 87 1010.6
20260901131016 37 0.0 0.0 0.00 0.00 0.00 87 1010.7
20260901130036 37 0.0 0.0 0.00 0.00 0.00 87 1010.9
20260901125036 37 0.0 0.0 0.00 0.00 0.00 87 1010.9
20260901124016 37 0.0 0.0 0.00 0.00 0.00 87 1010.8
20260901123016 37 0.0 0.0 0.00 0.00 0.00 87 1010.9
20260901122016 37 0.0 0.0 0.00 0.00 0.00 87 1010.9
20260901121016 37 0.0 0.0 0.00 0.00 0.00 86 1010.9
20260901120036 37 0.0 0.0 0.00 0.00 0.00 86 1010.8
20260901115018 38 0.0 0.0 0.00 0.00 0.00 86 1010.7
20260901114016 38 0.0 0.0 0.00 0.00 0.00 85 1010.7
20260901113016 38 0.0 0.0 0.00 0.00 0.00 86 1010.7
20260901112016 38 0.0 0.0 0.00 0.00 0.00 85 1010.6
20260901111036 39 0.0 0.0 0.00 0.00 0.00 85 1010.8
20260901110016 39 0.0 0.0 0.00 0.00 0.00 84 1010.8
20260901105017 39 0.0 0.0 0.00 0.00 0.00 84 1010.7
20260901104016 40 0.0 0.0 0.00 0.00 0.00 84 1010.8
20260901103016 40 0.0 0.0 0.00 0.00 0.00 84 1010.8
20260901102016 40 0.0 0.0 0.00 0.00 0.00 83 1010.6
20260901101015 40 0.0 0.0 0.00 0.00 0.00 83 1010.6
20260901100016 40 0.0 0.0 0.00 0.00 0.00 83 1010.6
20260901095017 41 0.0 0.0 0.00 0.00 0.00 83 1010.6
20260901094016 41 0.0 0.0 0.00 0.00 0.00 82 1010.6
20260901093016 41 0.0 0.0 0.00 0.00 0.00 83 1010.6
20260901092017 41 0.0 0.0 0.00 0.00 0.00 82 1010.7
20260901091016 42 0.0 0.0 0.00 0.00 0.00 81 1010.6
20260901090017 42 0.0 0.0 0.00 0.00 0.00 81 1010.4
20260901085015 42 0.0 0.0 0.00 0.00 0.00 80 1010.6
20260901084016 43 0.0 0.0 0.00 0.00 0.00 80 1010.7
20260901083016 43 0.0 0.0 0.00 0.00 0.00 80 1010.8
20260901082016 43 0.0 0.0 0.00 0.00 0.00 79 1010.5
20260901081016 44 0.0 0.0 0.00 0.00 0.00 79 1010.7
20260901080058 44 0.0 0.0 0.00 0.00 0.00 79 1010.7
20260901075018 44 0.0 0.0 0.00 0.00 0.00 78 1010.8
20260901074037 45 0.0 0.0 0.00 0.00 0.00 77 1010.8
20260901073018 45 0.0 0.0 0.00 0.00 0.00 77 1010.8
20260901072018 46 0.0 0.0 0.00 0.00 0.00 76 1010.7
20260901071018 46 0.0 0.0 0.00 0.00 0.00 76 1010.7
20260901070017 46 0.0 0.0 0.00 0.00 0.00 75 1010.6
20260901065016 47 0.0 0.0 0.00 0.00 0.00 74 1010.6
20260901064016 47 0.0 0.0 0.00 0.00 0.00 74 1010.6
20260901063016 48 0.0 0.0 0.00 0.00 0.00 73 1010.7
20260901062016 49 0.0 0.0 0.00 0.00 0.00 72 1010.5
20260901061016 49 0.0 0.0 0.00 0.00 0.00 71 1010.5
20260901060015 50 0.0 0.0 0.00 0.00 0.00 70 1010.8
20260901055036 50 0.0 0.0 0.00 0.00 0.00 69 1010.4
20260901054016 51 0.0 0.0 0.00 0.00 0.00 68 1010.7
20260901053016 52 0.0 0.0 0.00 0.00 0.00 67 1010.8
20260901052015 52 0.0 0.0 0.00 0.00 0.00 67 1010.6
20260901051016 53 0.0 0.0 0.00 0.00 0.00 66 1010.7
20260901050015 54 0.0 0.0 0.00 0.00 0.00 64 1010.7
20260901045138 54 0.0 0.0 0.00 0.00 0.00 65 1010.3
20260901044018 55 0.0 0.0 0.00 0.00 0.00 62 1010.6
20260901043018 56 0.0 0.0 0.00 0.00 0.00 62 1010.6
20260901042018 57 0.0 0.0 0.00 0.00 0.00 60 1010.3
20260901041018 57 0.0 0.0 0.00 0.00 0.00 60 1010.3
20260901040018 58 0.0 0.0 0.00 0.00 0.00 58 1010.5
20260901035017 59 0.0 0.0 0.00 0.00 0.00 57 1010.0
20260901034037 60 0.0 1.0 0.00 0.00 0.00 55 1010.0
20260901033017 61 0.0 0.0 0.00 0.00 0.00 53 1010.1
20260901032017 62 0.0 0.0 0.00 0.00 0.00 51 1009.5